LA9UTA-13 Weather Reports


Display with metric or nautical units.
time (UTC)temp
F
wind
direction
speed
MPH
gust
MPH
rain 1hr
in
rain 24hr
in
rain mn
in
humidity
%
barometer
mb
20260508233802 42 158 0.0 0.0 0.00 0.00 0.00 74 1024.1
20260508231802 42 159 0.0 0.0 0.00 0.00 0.00 73 1024.1
20260508225801 44 138 0.0 0.0 0.00 0.00 0.00 70 1025.0
20260508223802 45 174 0.0 0.0 0.00 0.00 0.00 68 1023.9
20260508221802 46 173 0.0 1.0 0.00 0.00 0.00 67 1023.9
20260508215802 47 219 2.0 3.0 0.00 0.00 0.00 64 1023.8
20260508213801 46 148 3.0 3.0 0.00 0.00 0.00 66 1023.9
20260508211802 46 188 2.0 2.0 0.00 0.00 0.00 64 1023.8
20260508205801 44 171 2.0 2.0 0.00 0.00 0.00 68 1024.0
20260508203801 45 178 1.0 1.0 0.00 0.00 0.00 66 1023.9
20260508201801 46 174 1.0 1.0 0.00 0.00 0.00 65 1023.9
20260508195802 48 173 1.0 1.0 0.00 0.00 0.00 61 1023.8
20260508193933 50 168 0.0 1.0 0.00 0.00 0.00 55 1023.6
20260508193801 50 168 0.0 1.0 0.00 0.00 0.00 55 1023.6
20260508192521 51 156 0.0 1.0 0.00 0.00 0.00 52 1023.6
20260508191801 51 156 0.0 1.0 0.00 0.00 0.00 52 1023.6
20260508190003 53 168 0.0 0.0 0.00 0.00 0.00 50 1023.5
20260508185803 53 168 0.0 0.0 0.00 0.00 0.00 50 1023.5
20260508183914 54 167 0.0 1.0 0.00 0.00 0.00 47 1023.4
20260508183803 54 167 0.0 1.0 0.00 0.00 0.00 47 1023.4
20260508181801 54 177 2.0 3.0 0.00 0.00 0.00 47 1023.4
20260508180356 55 165 2.0 2.0 0.00 0.00 0.00 45 1022.4
20260508175802 55 165 2.0 2.0 0.00 0.00 0.00 45 1022.4
20260508173801 55 162 3.0 3.0 0.00 0.00 0.00 44 1022.4
20260508171801 56 154 0.0 0.0 0.00 0.00 0.00 43 1022.3
20260508165801 57 143 0.0 1.0 0.00 0.00 0.00 42 1022.3
20260508163802 59 163 3.0 3.0 0.00 0.00 0.00 40 1022.2
20260508161801 58 228 1.0 1.0 0.00 0.00 0.00 40 1022.2
20260508155957 59 155 5.0 8.0 0.00 0.00 0.00 40 1022.2
20260508155801 59 155 5.0 8.0 0.00 0.00 0.00 40 1022.2
20260508153801 58 238 4.0 6.0 0.00 0.00 0.00 41 1022.2
20260508152011 60 176 4.0 7.0 0.00 0.00 0.00 39 1022.1
20260508151801 60 176 4.0 7.0 0.00 0.00 0.00 39 1022.1
20260508145802 59 232 3.0 3.0 0.00 0.00 0.00 40 1022.2
20260508143801 60 212 2.0 4.0 0.00 0.00 0.00 38 1022.1
20260508141802 60 237 3.0 4.0 0.00 0.00 0.00 39 1022.1
20260508135801 60 124 2.0 4.0 0.00 0.00 0.00 39 1023.1
20260508133801 60 217 2.0 3.0 0.00 0.00 0.00 38 1023.1
20260508131801 60 143 4.0 7.0 0.00 0.00 0.00 39 1023.1
20260508125801 59 155 1.0 1.0 0.00 0.00 0.00 39 1023.1
20260508123801 60 116 4.0 7.0 0.00 0.00 0.00 39 1023.1
20260508121801 59 161 4.0 8.0 0.00 0.00 0.00 37 1023.1
20260508115801 59 135 6.0 9.0 0.00 0.00 0.00 37 1023.2
20260508113802 58 167 3.0 4.0 0.00 0.00 0.00 37 1023.2
20260508111801 60 172 3.0 4.0 0.00 0.00 0.00 40 1023.1
20260508105801 58 169 2.0 3.0 0.00 0.00 0.00 44 1023.2
20260508103801 59 359 4.0 7.0 0.00 0.00 0.00 41 1023.1
20260508101801 59 166 5.0 7.0 0.00 0.00 0.00 44 1023.2
20260508095801 59 152 4.0 6.0 0.00 0.00 0.00 43 1023.2
20260508093801 57 162 4.0 6.0 0.00 0.00 0.00 46 1023.2
20260508091801 55 158 0.0 1.0 0.00 0.00 0.00 42 1023.4
20260508085802 55 141 1.0 2.0 0.00 0.00 0.00 40 1023.3
20260508083801 54 162 0.0 1.0 0.00 0.00 0.00 38 1023.4
20260508081801 57 153 1.0 1.0 0.00 0.00 0.00 39 1023.2
20260508075801 53 143 3.0 3.0 0.00 0.00 0.00 40 1023.5
20260508073801 50 143 1.0 1.0 0.00 0.00 0.00 48 1023.6
20260508071801 46 178 4.0 6.0 0.00 0.00 0.00 52 1022.9
20260508065801 47 151 2.0 3.0 0.00 0.00 0.00 49 1022.8
20260508063801 47 139 0.0 0.0 0.00 0.00 0.00 51 1022.8
20260508061801 43 145 0.0 0.0 0.00 0.00 0.00 59 1023.0
20260508055801 44 179 0.0 1.0 0.00 0.00 0.00 60 1023.0
20260508053801 38 179 0.0 0.0 0.00 0.00 0.00 69 1023.3
20260508052228 34 180 0.0 0.0 0.00 0.00 0.00 77 1022.5
20260508051801 37 180 0.0 0.0 0.00 0.00 0.00 71 1023.4
20260508045801 35 180 0.0 0.0 0.00 0.00 0.00 76 1022.5
20260508043801 34 180 0.0 0.0 0.00 0.00 0.00 77 1022.5
20260508035801 33 180 0.0 0.0 0.00 0.00 0.00 76 1022.6
20260508033801 31 179 0.0 0.0 0.00 0.00 0.00 78 1022.6
20260508031801 31 195 1.0 2.0 0.00 0.00 0.00 79 1022.6
20260508025801 30 171 0.0 0.0 0.00 0.00 0.00 79 1022.7
20260508025203 31 164 1.0 1.0 0.00 0.00 0.00 78 1022.6
20260508023801 31 164 1.0 1.0 0.00 0.00 0.00 78 1022.6
20260508021802 30 173 1.0 1.0 0.00 0.00 0.00 77 1022.7
20260508015801 29 196 2.0 2.0 0.00 0.00 0.00 79 1022.7
20260508015155 30 165 0.0 0.0 0.00 0.00 0.00 78 1022.7
20260508013801 30 165 0.0 0.0 0.00 0.00 0.00 78 1022.7
20260508011801 32 278 2.0 2.0 0.00 0.00 0.00 72 1022.6
20260508010646 33 281 2.0 2.0 0.00 0.00 0.00 71 1021.5
20260508005801 31 324 2.0 2.0 0.00 0.00 0.00 76 1021.5
20260508003801 31 167 1.0 1.0 0.00 0.00 0.00 75 1021.5
20260508001801 32 187 1.0 2.0 0.00 0.00 0.00 74 1021.5
20260507235801 32 181 1.0 1.0 0.00 0.00 0.00 73 1021.5